Theta_e
312 310 310 310 309 310 312 312 313 312 311 314 311 310 310 312 313 312 313 314 316 317 318 318 319 319 318 318 318 318 318 318 318 317 317 316 314 312 311 310 310 311 311 311
309 310 310 311 312 312 312 313 311 310 312 314 313 312 311 312 312 315 314 314 316 317 318 319 319 319 318 318 318 318 318 318 318 317 317 316 315 312 311 310 310 311 311 311
310 313 313 313 313 314 312 311 311 312 313 313 313 312 313 312 313 316 316 317 316 316 318 319 319 318 318 318 318 318 319 318 318 318 317 316 315 312 311 310 310 311 311 310
311 311 312 312 313 311 313 310 312 313 313 312 312 311 311 311 311 312 315 315 315 316 318 319 318 318 318 318 318 319 319 318 318 318 317 316 314 311 310 309 310 311 311 310
313 311 312 312 312 312 312 311 312 313 311 312 312 312 310 310 312 311 310 314 314 315 317 318 318 318 318 318 318 319 319 318 317 317 316 316 313 310 309 309 310 312 311 310
311 311 311 311 311 311 311 311 310 310 308 311 311 311 310 311 312 315 315 317 319 314 316 318 318 318 318 318 319 319 318 317 317 316 316 315 311 308 308 310 311 311 311 310
311 311 311 311 313 312 310 310 310 312 313 313 311 311 310 311 311 315 315 315 316 313 315 317 317 317 318 319 319 318 317 317 315 315 315 313 309 307 308 309 310 309 310 310
312 313 312 312 311 311 309 310 312 314 312 314 316 318 317 316 316 315 314 314 314 314 316 317 318 318 319 319 318 317 317 316 315 315 315 309 307 306 307 309 310 309 309 309
311 312 312 312 312 312 311 311 309 311 313 315 315 314 313 317 315 313 313 314 314 316 317 318 318 319 319 318 318 317 315 315 315 315 310 307 307 305 307 310 311 310 310 310
312 312 312 313 313 312 311 311 312 309 317 317 314 315 315 318 317 315 314 315 317 318 318 318 319 319 318 318 316 315 315 315 315 311 308 307 306 305 307 310 312 312 311 311
310 310 313 315 313 312 314 313 312 312 311 314 314 315 312 313 315 314 313 317 318 318 319 319 319 318 318 316 315 314 315 315 312 308 307 306 305 305 307 310 312 312 312 312
314 309 312 313 312 312 312 313 314 314 315 312 311 316 313 315 313 315 316 317 318 318 319 319 318 318 316 315 315 315 315 312 309 308 307 306 304 305 309 311 312 312 313 312
314 310 311 314 312 313 315 311 313 310 310 315 315 317 313 314 314 316 318 319 319 318 318 318 318 317 316 315 315 315 313 311 308 308 306 304 304 309 311 312 312 312 312 311
312 311 310 311 312 313 315 315 312 313 311 316 314 316 316 315 314 315 317 319 317 317 318 318 317 316 314 314 314 313 312 309 308 307 304 303 308 311 311 312 312 311 312 312
307 307 312 311 313 312 313 315 314 312 314 314 315 313 314 314 313 315 319 319 316 317 318 318 316 315 314 314 314 312 309 308 307 305 303 308 310 311 311 312 312 312 312 311
305 306 309 308 306 307 313 314 315 313 314 314 314 314 312 312 315 315 316 317 317 317 317 317 315 315 314 314 313 309 308 307 305 302 306 309 310 310 311 312 312 312 312 311
303 304 305 306 305 306 307 310 314 315 314 315 314 314 311 312 312 313 316 316 317 317 317 316 315 315 314 312 309 309 307 305 303 304 307 308 309 310 311 312 313 313 313 314
302 304 304 305 305 307 305 309 311 314 315 314 313 311 311 313 316 317 317 317 317 317 316 316 315 315 311 310 309 308 306 304 303 304 305 307 308 310 311 311 313 314 313 313
303 303 303 306 305 305 305 305 311 314 313 314 313 313 313 312 313 313 314 314 316 316 316 315 314 312 310 309 307 306 304 303 303 304 305 307 308 310 310 311 313 313 312 312
303 304 305 301 303 303 303 304 304 304 307 309 311 314 314 312 313 315 315 317 316 315 316 314 312 310 309 307 306 305 304 302 303 304 305 307 308 308 309 310 310 312 312 311
300 304 305 306 305 304 304 307 310 313 309 312 314 313 312 313 314 314 316 315 316 316 314 312 311 309 307 306 305 304 301 302 304 305 304 307 307 307 307 308 310 311 311 311
301 301 303 306 307 307 307 309 309 307 308 309 312 314 313 313 314 315 316 315 316 315 312 311 310 308 306 305 303 302 301 302 304 303 303 303 304 305 306 306 309 309 307 308
299 302 301 304 302 304 307 307 307 307 310 311 315 315 314 315 315 314 315 316 315 313 311 309 308 306 305 304 302 301 301 302 301 302 303 303 303 305 305 305 306 304 303 305
304 304 306 306 303 304 306 306 305 308 308 310 312 315 314 315 315 315 316 315 313 312 309 308 306 305 304 303 301 300 301 301 301 302 304 304 304 305 306 306 303 302 301 303
301 304 303 303 302 303 303 305 307 306 307 310 311 314 314 315 316 315 315 313 312 309 308 306 305 304 303 301 300 301 300 300 301 302 303 303 303 303 305 304 300 301 301 301
301 301 302 302 301 302 303 304 306 307 306 308 308 315 314 315 315 315 314 312 309 308 306 305 304 303 301 300 301 301 299 300 300 301 300 301 300 301 301 299 301 302 303 304
Wind_Speed
3 4 4 6 6 2 1 1 2 3 3 2 6 7 11 13 7 11 20 30 36 39 36 31 27 23 20 17 13 8 3 7 13 14 20 23 23 25 25 26 27 27 27 28
5 5 8 4 3 4 3 1 6 6 3 3 4 8 9 5 9 22 26 30 35 40 38 33 30 27 23 18 13 6 3 8 13 17 23 27 28 29 30 31 32 31 27 26
6 5 4 4 3 3 3 4 5 7 3 2 4 7 6 7 13 21 27 35 37 42 45 39 35 31 26 21 13 7 7 11 16 19 23 27 28 28 32 34 37 34 30 28
5 3 4 3 2 6 4 8 5 4 3 4 1 6 5 6 8 6 27 31 29 34 44 43 38 33 28 20 12 7 9 13 15 19 23 29 29 31 33 36 39 40 34 29
7 6 4 4 6 6 7 4 7 3 3 1 1 2 7 3 5 10 12 24 24 30 40 45 40 33 25 16 9 9 11 12 15 20 24 30 30 31 34 38 40 40 36 31
6 1 5 7 4 6 8 6 7 4 3 2 7 7 5 4 4 6 6 18 21 27 34 43 36 28 20 12 11 12 12 13 16 20 26 31 31 32 36 39 41 40 37 34
4 4 3 4 3 3 5 6 2 3 2 6 0 1 8 6 7 6 14 23 14 23 32 39 35 26 16 14 14 14 13 15 18 22 27 30 30 32 36 39 40 38 36 34
5 8 7 5 8 8 7 8 6 6 4 4 1 6 6 3 6 12 11 7 10 21 33 35 27 18 16 16 17 16 16 18 21 25 29 30 30 34 38 39 38 37 35 34
5 6 5 5 3 8 4 4 4 6 2 2 5 7 8 2 5 4 5 14 20 27 29 24 19 22 19 19 18 17 18 19 23 27 29 30 32 35 39 39 38 37 36 35
4 5 6 6 5 4 5 8 3 2 3 5 4 5 6 5 4 3 5 15 24 24 24 24 23 21 21 22 20 19 19 22 26 28 29 32 35 37 40 39 38 37 37 37
5 3 6 1 6 9 3 2 5 4 4 6 2 6 7 9 10 11 12 25 28 27 25 24 24 24 23 23 20 18 20 24 27 28 30 34 36 38 41 38 36 37 38 36
4 2 4 9 5 2 6 8 7 5 5 3 3 11 6 8 12 20 23 26 24 23 23 23 25 25 25 22 20 20 22 25 27 28 32 36 38 39 38 36 35 36 38 38
6 3 5 9 5 3 3 4 5 4 4 8 6 11 4 4 6 21 24 26 22 19 19 24 27 28 25 21 19 20 24 26 27 30 35 37 37 36 35 35 36 36 38 40
6 4 8 9 7 5 7 8 5 7 5 15 7 23 5 6 8 10 25 29 26 19 20 21 27 27 23 20 19 22 24 24 27 33 35 35 35 32 32 35 35 38 38 40
4 6 4 11 7 6 14 18 17 10 17 11 22 11 20 11 10 20 31 32 26 22 23 24 26 24 21 18 20 22 21 24 29 33 32 34 31 31 33 35 37 39 39 41
2 5 3 15 14 15 14 15 19 22 21 14 20 19 9 16 26 16 24 24 26 28 28 27 24 22 19 19 20 19 22 26 30 31 31 31 30 32 34 35 38 39 41 40
9 7 3 21 13 11 9 25 17 18 16 20 16 21 7 8 10 21 31 33 36 36 32 26 25 20 18 16 16 18 23 26 29 29 30 29 30 32 33 34 37 38 41 39
14 15 9 16 11 15 15 3 11 16 20 14 9 8 8 16 28 30 31 31 32 34 25 24 20 16 14 14 15 19 22 26 28 29 30 30 30 32 33 33 34 35 33 35
19 14 10 13 15 16 20 19 4 4 13 12 17 21 20 20 16 24 30 28 29 24 21 17 14 12 12 13 15 19 22 25 27 29 31 29 28 31 32 33 33 33 34 36
16 17 12 3 13 19 22 21 24 20 18 20 19 22 21 12 5 18 20 21 20 20 17 13 11 10 11 12 15 19 23 24 26 28 30 28 27 30 32 32 34 34 34 37
2 4 13 11 11 9 10 6 11 17 12 9 10 29 19 12 18 11 17 22 19 15 13 12 10 9 10 12 15 18 21 22 25 27 28 27 27 28 29 33 33 34 35 38
3 3 4 5 6 11 1 5 14 6 25 25 36 20 20 25 14 13 20 23 18 15 14 13 11 9 9 11 15 18 20 22 25 26 27 27 28 29 30 31 33 34 35 37
4 7 3 5 4 3 6 12 18 21 22 27 30 29 28 27 22 23 26 24 18 16 14 13 10 8 8 10 16 20 20 23 25 25 24 27 29 30 31 32 33 34 33 33
5 7 4 3 6 10 14 16 21 16 22 28 35 34 28 35 27 26 26 20 20 18 16 12 10 7 6 11 16 17 19 21 23 24 24 27 30 31 32 33 33 32 29 30
7 5 4 10 15 16 28 22 15 21 25 24 26 24 30 35 27 27 24 21 20 18 14 11 8 5 6 11 13 16 18 20 22 23 25 27 29 31 32 33 34 31 24 23
11 13 8 10 20 13 22 21 19 22 26 27 33 22 25 32 26 27 24 21 19 15 12 10 6 3 6 10 12 16 18 19 21 23 25 26 27 29 30 34 37 30 24 20
Wind_Direction
54 75 214 218 193 158 145 173 255 252 256 216 223 246 252 252 218 200 207 207 209 209 210 203 201 199 202 207 213 220 275 359 359 354 349 345 339 335 333 330 326 318 310 304
27 235 227 200 189 200 187 291 285 284 265 167 288 261 251 247 229 232 215 210 213 213 212 205 203 205 211 215 212 224 293 334 344 348 346 342 335 331 329 326 324 321 312 302
161 228 111 172 175 174 215 185 224 220 360 15 336 280 237 258 246 240 234 235 230 221 212 205 202 206 210 214 219 239 302 327 335 340 336 334 329 323 323 324 325 323 316 305
221 272 155 129 225 157 246 210 178 180 107 236 41 281 286 241 249 256 250 241 237 224 216 207 202 204 207 208 222 266 299 314 324 329 326 329 327 323 322 322 323 321 317 306
247 174 176 203 216 164 229 144 154 137 132 86 276 309 261 249 255 252 255 254 250 232 221 209 203 203 201 206 228 260 288 304 314 318 318 324 320 319 317 318 319 317 313 305
234 200 179 208 234 171 153 81 55 60 102 312 212 183 272 245 215 303 276 284 283 234 218 207 196 195 197 208 238 259 275 294 304 308 313 318 316 316 316 319 318 317 312 307
328 235 250 170 169 49 83 75 345 343 2 232 197 128 251 243 281 255 287 293 269 217 203 190 185 185 198 224 242 254 272 288 294 301 310 314 313 312 316 317 316 314 311 305
193 291 179 185 191 184 187 155 157 209 199 254 95 235 250 247 311 305 297 259 197 186 184 174 177 190 215 230 243 255 270 279 291 302 310 311 309 311 315 316 314 310 307 305
191 258 285 184 180 141 190 165 200 106 23 63 234 290 304 234 359 25 110 148 156 159 160 169 189 208 222 236 247 256 265 282 296 305 308 308 309 312 317 316 313 312 309 308
276 295 239 239 108 50 168 158 78 6 171 229 268 269 235 236 211 141 138 153 157 163 178 193 206 221 231 237 243 253 272 287 300 305 305 307 311 313 317 314 313 311 307 305
1 138 285 96 201 178 145 187 52 128 145 184 213 256 217 211 188 188 198 181 185 193 200 210 219 226 233 238 244 261 278 293 300 300 303 307 311 313 316 312 311 308 304 303
10 287 251 238 275 242 177 195 158 144 221 227 167 261 201 211 192 189 205 205 208 215 223 227 230 232 236 240 251 270 288 294 297 301 307 309 311 314 315 313 310 308 305 304
347 323 336 329 348 15 224 197 151 120 77 198 176 262 196 193 186 208 210 214 215 219 234 231 232 236 236 244 261 280 290 294 298 305 308 311 315 317 317 315 314 310 307 305
325 233 204 245 264 312 287 306 247 182 171 241 213 254 203 217 215 218 218 220 219 236 239 234 231 233 234 249 269 282 288 295 302 305 311 317 318 317 318 318 314 312 311 309
196 237 234 270 278 303 290 286 270 215 233 208 248 219 252 207 209 225 231 227 231 233 235 237 230 225 236 256 274 285 292 298 304 310 315 319 316 317 317 316 316 314 314 314
228 259 273 280 291 280 276 282 262 256 249 251 247 256 253 208 228 227 238 238 235 235 249 236 225 227 243 264 280 284 294 302 310 314 317 316 316 317 319 319 321 318 316 315
263 272 248 270 269 287 279 246 256 259 246 235 235 246 170 224 216 229 240 243 249 254 247 224 219 232 252 268 274 287 298 309 316 315 317 313 316 320 321 320 321 321 323 319
237 236 230 257 276 252 250 282 264 258 251 245 257 250 203 216 231 238 245 255 255 252 232 210 215 236 253 263 277 293 306 314 317 318 321 318 319 320 318 318 320 319 323 328
219 222 232 231 243 262 284 267 251 212 266 265 246 248 240 238 251 262 258 261 259 235 200 207 224 238 253 267 286 300 312 320 320 323 326 323 320 320 318 317 315 318 319 326
223 223 223 210 231 246 256 262 250 260 262 257 258 252 242 155 208 255 242 219 190 182 195 212 222 237 255 275 295 309 319 321 322 326 329 326 322 318 317 316 315 314 317 319
228 214 240 248 239 259 251 271 288 211 255 218 303 253 210 201 227 233 209 187 183 190 203 210 221 239 260 285 303 319 324 322 323 328 333 329 324 321 319 315 314 315 316 317
230 246 232 221 238 257 354 297 214 283 316 317 316 305 239 219 207 201 191 181 189 203 207 213 220 244 271 293 314 325 329 325 327 331 334 331 326 328 323 322 321 321 323 320
233 203 233 224 235 245 250 235 284 296 293 301 302 301 266 205 184 173 177 175 196 204 202 211 226 249 272 309 322 329 331 331 335 335 341 334 331 329 328 329 328 328 329 327
237 212 247 276 264 244 292 272 294 297 323 303 296 303 248 206 184 173 179 176 194 195 201 214 227 243 295 321 328 334 332 337 341 342 338 334 332 330 335 332 334 333 335 331
249 187 226 255 268 280 272 276 256 299 312 307 298 299 229 205 183 181 179 185 191 192 198 213 223 259 317 338 348 344 344 347 345 338 332 331 331 332 335 332 336 336 338 338
231 244 234 252 261 244 273 278 284 288 308 301 308 309 207 189 180 188 180 181 184 190 200 202 216 275 339 358 359 350 357 353 346 339 334 337 336 338 338 340 339 345 346 353